Simultaneous Nadir Overpasses (SNOs) Predictions

Prediction of SNOs between METOP-A and NOAA-19 Satellite Orbit:

Table of predicted SNOs for the next 14.0 days since TLE Epoch: 1/19/2018
Index Date (METOP-A) Time (METOP-A) Lat,Lon (METOP-A) SZA (METOP-A ) Date (NOAA-19) Time (NOAA-19) Lat,Lon (NOAA-19) SZA (NOAA-19 ) Distance(km) Time Diff (sec)
1 01/21/2018 06:07:44 -78.06, -84.92 82.08 01/21/2018 06:06:34 -78.07, -84.84 82.07 2.28 70
2 01/21/2018 06:58:24 78.07, 82.45 97.92 01/21/2018 06:57:30 78.06, 82.50 97.91 1.39 54
3 01/21/2018 07:49:06 -78.04,-110.36 82.12 01/21/2018 07:48:35 -78.06,-110.27 82.10 3.16 31
4 01/21/2018 08:39:46 78.05, 57.01 97.89 01/21/2018 08:39:31 78.05, 57.07 97.89 1.40 15
5 01/21/2018 09:30:27 -78.06,-135.60 82.11 01/21/2018 09:30:36 -78.05,-135.71 82.12 2.71 9
6 01/21/2018 10:21:08 78.03, 31.56 97.85 01/21/2018 10:21:32 78.04, 31.63 97.86 1.99 24
7 01/21/2018 11:11:49 -78.04,-161.05 82.15 01/21/2018 11:12:37 -78.04,-161.14 82.15 2.12 48
8 01/21/2018 12:02:30 78.01, 6.12 97.81 01/21/2018 12:03:33 78.02, 6.20 97.83 2.83 63
9 02/01/2018 01:26:00 78.36, 167.00 95.49 02/01/2018 01:24:52 78.34, 164.32 95.44 60.32 68
10 02/01/2018 02:16:47 -78.13, -26.90 84.77 02/01/2018 02:15:51 -78.09, -26.93 84.81 3.99 56
11 02/01/2018 03:07:28 78.09, 140.26 95.19 02/01/2018 03:06:47 78.11, 140.24 95.20 1.77 41
12 02/01/2018 03:58:09 -78.11, -52.35 84.81 02/01/2018 03:57:52 -78.08, -52.36 84.84 2.95 17
13 02/01/2018 04:48:50 78.07, 114.81 95.14 02/01/2018 04:48:48 78.10, 114.81 95.17 2.76 2
14 02/01/2018 05:39:31 -78.09, -77.79 84.86 02/01/2018 05:39:53 -78.07, -77.80 84.87 1.92 22
15 02/01/2018 06:30:12 78.05, 89.36 95.10 02/01/2018 06:30:49 78.09, 89.37 95.14 3.79 37
16 02/01/2018 07:20:53 -78.07,-103.24 84.90 02/01/2018 07:21:54 -78.06,-103.23 84.90 0.92 61
17 02/01/2018 08:11:35 77.99, 63.71 95.02 02/01/2018 08:12:48 78.00, 64.38 95.04 15.51 73




NCC Satellite Simultaneous Nadir Overpasses (SNOs) Prediction Service
